Find Starlink 37635

NORAD ID: 69029 Int'l Des: 2026-101 Owner: SPXS Country: US Constellation: starlink operational
LEOCIRCULARRETROGRADE

現在のビュー

3D地球を読み込み中...

About Starlink 37635

Starlink 37635 (NORAD 69029) is a starlink constellation satellite (v2 mini) launched May 6, 2026 by SPXS of US. It operates in LEO, CIRCULAR, RETROGRADE orbit with a mass of 575.00 kg.

Starlink 37635について

説明を読み込み中...

次回通過

Passes for default location (London). Set your location on the main map for personalized predictions.

高度履歴

Loading altitude history...

軌道要素

1 69029U 26101E 26176.56263887 .00025776 00000-0 79788-3 0 9992
2 69029 97.2869 31.2530 0001620 90.0213 270.1215 15.33449570 7856
Epoch: Jun 25, 2026 • Age: 8 hours

現在のステータス

高度 472.7 km
速度 7.64 km/s
衛星直下点 50.01°N, 22.18°W
打ち上げ日 May 6, 2026
運用期間 0.1 years
タイプ internet

技術仕様

分類 Payload
質量 575.00 kg
乾燥質量 530.00 kg
総質量 575.00 kg
長さ 0.30 m
直径 4.10 m
スパン 29.00 m
形状 Box + pan
製造者 SPXS
バスタイプ Starlink V2MO
フェーズステータス In Orbit
所有者/国 SPXS/US

Most Searched